Weather History for LIEE - August, 2013

Change the Weather History Date:

Sunday, August 25, 2013

  Actual Average Record
Temperature  
Mean Temperature 78 °F -  
Max Temperature 89 °F 81 °F 96 °F (2004)
Min Temperature 68 °F 64 °F 60 °F (2005)
Cooling Degree Days 14    
Growing Degree Days 28 (Base 50)    
Moisture  
Dew Point 62 °F    
Average Humidity 62    
Maximum Humidity 94    
Minimum Humidity 33    
Precipitation  
Precipitation 0.00 in 0.04 in - ()
Sea Level Pressure  
Sea Level Pressure 29.86 in    
Wind  
Wind Speed 11 mph ()    
Max Wind Speed 23 mph    
Max Gust Speed 31 mph    
Visibility 6.2 miles    
Events      
Averages and records for this station are not official NWS values.
T = Trace of Precipitation, MM = Missing Value Source: Averaged Metar Reports

Daily Weather History Graph

Daily Weather History Graph

Search for Another Location

Airport or City:

Trip Planner

Search our weather history database for the weather conditions in past years. The results will help you decide how hot, cold, wet, or windy it might be!

Date:

Astronomy

Aug. 25, 2013 Rise Set
Actual Time 6:45 AM CEST 8:05 PM CEST
Civil Twilight 6:18 AM CEST 8:32 PM CEST
Nautical Twilight 5:44 AM CEST 9:06 PM CEST
Astronomical Twilight 5:09 AM CEST 9:41 PM CEST
Moon 10:28 PM CEST (8/25) 11:28 AM CEST (8/25)
Length of Visible Light 14h 14m
Length of Day
13h 19m
Waning Gibbous, 78% of the Moon is Illuminated
Aug 25
Waning Gibbous
Aug 28
Last Quarter
Sep 5
New
Sep 12
First Quarter
Sep 19
Full

Hourly Weather History & Observations

Time (CEST) Temp. Heat Index Dew Point Humidity Pressure Visibility Wind Dir Wind Speed Gust Speed Precip Events Conditions
12:20 AM 75.2 °F - 68.0 °F 78% 29.92 in 6.2 mi North 9.2 mph - N/A   Partly Cloudy
12:50 AM 75.2 °F - 69.8 °F 83% 29.89 in - North 10.4 mph - N/A   Clear
1:20 AM 73.4 °F - 68.0 °F 83% 29.89 in - NNW 9.2 mph - N/A   Clear
1:50 AM 73.4 °F - 68.0 °F 83% 29.89 in - NNW 8.1 mph - N/A   Clear
2:20 AM 73.4 °F - 68.0 °F 83% 29.89 in - NNW 10.4 mph - N/A   Clear
2:50 AM 73.4 °F - 68.0 °F 83% 29.89 in - NNW 10.4 mph - N/A   Clear
3:20 AM 73.4 °F - 68.0 °F 83% 29.89 in - NNW 10.4 mph - N/A   Clear
4:20 AM 69.8 °F - 66.2 °F 88% 29.89 in - NNW 5.8 mph - N/A   Clear
4:50 AM 69.8 °F - 66.2 °F 88% 29.86 in - NW 6.9 mph - N/A   Clear
5:20 AM 69.8 °F - 66.2 °F 88% 29.86 in - NW 9.2 mph - N/A   Clear
5:50 AM 69.8 °F - 66.2 °F 88% 29.86 in - NW 8.1 mph - N/A   Clear
6:20 AM 69.8 °F - 66.2 °F 88% 29.86 in - NW 6.9 mph - N/A   Clear
6:50 AM 68.0 °F - 66.2 °F 94% 29.86 in - NW 8.1 mph - N/A   Clear
7:20 AM 69.8 °F - 66.2 °F 88% 29.86 in - NW 9.2 mph - N/A   Clear
7:50 AM 69.8 °F - 66.2 °F 88% 29.86 in - NW 8.1 mph - N/A   Clear
8:20 AM 71.6 °F - 66.2 °F 83% 29.89 in - NNW 8.1 mph - N/A   Clear
8:50 AM 75.2 °F - 68.0 °F 78% 29.86 in - NW 8.1 mph - N/A   Clear
9:20 AM 77.0 °F - 68.0 °F 74% 29.86 in - NNW 12.7 mph - N/A   Clear
9:50 AM 78.8 °F - 68.0 °F 69% 29.86 in 6.2 mi North 16.1 mph - N/A   Partly Cloudy
10:20 AM 78.8 °F - 68.0 °F 69% 29.86 in 6.2 mi NNW 15.0 mph - N/A   Partly Cloudy
10:50 AM - - - N/A% 29.86 in 6.2 mi NNW 15.0 mph - N/A   Partly Cloudy
11:20 AM 82.4 °F 83.9 °F 64.4 °F 54% 29.86 in 6.2 mi NNW 16.1 mph - N/A   Partly Cloudy
11:50 AM 84.2 °F 85.6 °F 64.4 °F 51% 29.86 in 6.2 mi NNW 13.8 mph - N/A   Partly Cloudy
12:20 PM 86.0 °F 87.3 °F 64.4 °F 48% 29.86 in 6.2 mi NW 16.1 mph - N/A   Partly Cloudy
12:50 PM 86.0 °F 86.6 °F 62.6 °F 45% 29.83 in 6.2 mi NW 16.1 mph - N/A   Partly Cloudy
1:20 PM 87.8 °F 86.5 °F 57.2 °F 35% 29.83 in 6.2 mi NNW 18.4 mph - N/A   Partly Cloudy
1:50 PM 89.6 °F 88.1 °F 57.2 °F 33% 29.83 in 6.2 mi NNW 18.4 mph 31.1 mph N/A   Partly Cloudy
2:20 PM 87.8 °F 86.1 °F 55.4 °F 33% 29.83 in 6.2 mi NNW 19.6 mph - N/A   Partly Cloudy
2:50 PM 86.0 °F 84.9 °F 57.2 °F 37% 29.83 in 6.2 mi NNW 23.0 mph - N/A   Partly Cloudy
3:20 PM 86.0 °F 84.9 °F 57.2 °F 37% 29.83 in 6.2 mi NNW 23.0 mph - N/A   Partly Cloudy
3:50 PM 86.0 °F 84.9 °F 57.2 °F 37% 29.83 in 6.2 mi NW 20.7 mph - N/A   Partly Cloudy
4:20 PM 86.0 °F 84.9 °F 57.2 °F 37% 29.83 in - NW 20.7 mph - N/A   Clear
4:50 PM 86.0 °F 84.9 °F 57.2 °F 37% 29.83 in - NW 20.7 mph - N/A   Clear
5:20 PM 86.0 °F 85.4 °F 59.0 °F 40% 29.83 in - NNW 17.3 mph - N/A   Clear
5:50 PM 86.0 °F 84.9 °F 57.2 °F 37% 29.83 in - NW 20.7 mph - N/A   Clear
6:20 PM 84.2 °F 83.5 °F 57.2 °F 40% 29.83 in - NNW 19.6 mph - N/A   Clear
6:50 PM 84.2 °F 83.5 °F 57.2 °F 40% 29.83 in - NNW 16.1 mph - N/A   Clear
7:20 PM 84.2 °F 83.5 °F 57.2 °F 40% 29.83 in - NW 16.1 mph - N/A   Clear
7:50 PM 80.6 °F 80.8 °F 57.2 °F 45% 29.83 in - NW 16.1 mph - N/A   Clear
8:20 PM 78.8 °F - 55.4 °F 44% 29.83 in - NW 13.8 mph - N/A   Clear
8:50 PM 78.8 °F - 55.4 °F 44% 29.83 in - NW 12.7 mph - N/A   Clear
9:20 PM 77.0 °F - 57.2 °F 50% 29.86 in - NNW 10.4 mph - N/A   Clear
9:50 PM 75.2 °F - 57.2 °F 53% 29.86 in - NNW 11.5 mph - N/A   Clear
10:20 PM 73.4 °F - 59.0 °F 61% 29.86 in - NNW 6.9 mph - N/A   Clear
10:50 PM 73.4 °F - 60.8 °F 65% 29.86 in - NNW 8.1 mph - N/A   Clear
11:20 PM 73.4 °F - 60.8 °F 65% 29.86 in - NNW 10.4 mph - N/A   Clear
11:50 PM 73.4 °F - 60.8 °F 65% 29.86 in - NNW 9.2 mph - N/A   Clear